| time (UTC) | temp F | wind direction | speed knots | gust knots | rain 1hr in | rain 24hr in | rain mn in | humidity % | barometer mb |
| 20260507224508 | 77 | 183 | 0.0 | 0.0 | 0.00 | 0.04 | 0.04 | 78 | 1012.9 |
| 20260507223008 | 78 | 131 | 0.0 | 0.9 | 0.00 | 0.04 | 0.04 | 78 | 1013.0 |
| 20260507221507 | 78 | 41 | 0.0 | 3.5 | 0.00 | 0.04 | 0.04 | 77 | 1012.9 |
| 20260507220006 | 79 | 144 | 0.0 | 2.6 | 0.00 | 0.04 | 0.04 | 77 | 1012.7 |
| 20260507214506 | 80 | 34 | 0.0 | 0.9 | 0.00 | 0.04 | 0.04 | 74 | 1012.6 |
| 20260507213014 | 80 | 56 | 0.0 | 0.9 | 0.00 | 0.04 | 0.04 | 74 | 1012.6 |
| 20260507211504 | 80 | 72 | 0.0 | 3.5 | 0.00 | 0.04 | 0.04 | 75 | 1012.6 |
| 20260507210007 | 81 | 59 | 0.0 | 0.9 | 0.00 | 0.04 | 0.04 | 74 | 1012.5 |
| 20260507204504 | 81 | 141 | 0.0 | 3.5 | 0.00 | 0.04 | 0.04 | 74 | 1012.4 |
| 20260507203003 | 81 | 77 | 0.0 | 1.7 | 0.00 | 0.04 | 0.04 | 74 | 1012.6 |
| 20260507201507 | 80 | 61 | 0.0 | 3.5 | 0.00 | 0.04 | 0.04 | 75 | 1012.5 |
| 20260507200003 | 82 | 158 | 0.0 | 0.9 | 0.00 | 0.04 | 0.04 | 71 | 1012.7 |
| 20260507194621 | 82 | 97 | 0.0 | 0.0 | 0.00 | 0.04 | 0.04 | 69 | 1012.8 |
| 20260507194501 | 83 | 98 | 0.0 | 0.9 | 0.00 | 0.04 | 0.04 | 70 | 1012.8 |
| 20260507193100 | 83 | 56 | 0.0 | 0.9 | 0.00 | 0.04 | 0.04 | 70 | 1012.9 |
| 20260507191559 | 82 | 240 | 0.0 | 0.9 | 0.00 | 0.04 | 0.04 | 71 | 1012.9 |
| 20260507190058 | 82 | 64 | 0.0 | 0.9 | 0.00 | 0.04 | 0.04 | 72 | 1013.1 |
| 20260507184557 | 83 | 46 | 0.0 | 0.9 | 0.00 | 0.04 | 0.04 | 71 | 1013.1 |
| 20260507183056 | 82 | 32 | 0.0 | 0.9 | 0.00 | 0.04 | 0.04 | 73 | 1013.2 |
| 20260507181558 | 80 | 202 | 0.0 | 0.9 | 0.00 | 0.04 | 0.04 | 74 | 1013.4 |
| 20260507180050 | 79 | 56 | 0.0 | 3.5 | 0.00 | 0.04 | 0.04 | 75 | 1013.5 |
| 20260507174556 | 77 | 116 | 0.0 | 2.6 | 0.00 | 0.04 | 0.04 | 79 | 1013.6 |
| 20260507173113 | 77 | 115 | 0.0 | 4.3 | 0.00 | 0.04 | 0.04 | 78 | 1013.7 |
| 20260507171548 | 76 | 68 | 0.0 | 1.7 | 0.00 | 0.04 | 0.04 | 81 | 1013.8 |
| 20260507170043 | 74 | 147 | 0.0 | 0.9 | 0.00 | 0.04 | 0.04 | 84 | 1014.0 |
| 20260507164548 | 73 | 135 | 0.0 | 0.9 | 0.00 | 0.04 | 0.04 | 86 | 1014.2 |
| 20260507163039 | 72 | 15 | 0.0 | 0.0 | 0.00 | 0.04 | 0.04 | 88 | 1014.3 |
| 20260507161554 | 71 | 166 | 0.0 | 0.9 | 0.00 | 0.04 | 0.04 | 90 | 1014.3 |
| 20260507160039 | 70 | 138 | 0.0 | 0.0 | 0.00 | 0.04 | 0.04 | 92 | 1014.2 |
| 20260507154538 | 69 | 79 | 0.0 | 1.7 | 0.00 | 0.04 | 0.04 | 93 | 1014.0 |
| 20260507153033 | 68 | 129 | 0.0 | 3.5 | 0.01 | 0.04 | 0.04 | 93 | 1014.0 |
| 20260507151532 | 69 | 84 | 0.0 | 0.0 | 0.01 | 0.04 | 0.04 | 92 | 1014.1 |
| 20260507150031 | 69 | 38 | 0.0 | 0.0 | 0.01 | 0.04 | 0.04 | 93 | 1014.0 |
| 20260507144534 | 69 | 29 | 0.0 | 0.0 | 0.02 | 0.04 | 0.04 | 93 | 1014.0 |
| 20260507143028 | 69 | 348 | 0.0 | 0.0 | 0.01 | 0.03 | 0.03 | 93 | 1014.0 |
| 20260507141526 | 70 | 326 | 0.0 | 0.9 | 0.01 | 0.03 | 0.03 | 94 | 1013.9 |
| 20260507140024 | 70 | 111 | 0.0 | 0.0 | 0.01 | 0.03 | 0.03 | 94 | 1013.8 |
| 20260507134523 | 71 | 122 | 0.0 | 0.0 | 0.00 | 0.02 | 0.02 | 94 | 1013.6 |
| 20260507133020 | 71 | 84 | 0.0 | 0.0 | 0.00 | 0.02 | 0.02 | 93 | 1013.4 |
| 20260507131527 | 71 | 126 | 0.0 | 0.0 | 0.01 | 0.02 | 0.02 | 93 | 1013.5 |
| 20260507130016 | 72 | 41 | 0.0 | 0.0 | 0.01 | 0.02 | 0.02 | 93 | 1013.3 |
| 20260507124517 | 73 | 41 | 0.0 | 1.7 | 0.02 | 0.02 | 0.02 | 93 | 1013.0 |
| 20260507123010 | 73 | 149 | 0.0 | 2.6 | 0.02 | 0.02 | 0.02 | 93 | 1012.7 |
| 20260507121506 | 74 | 65 | 0.0 | 0.0 | 0.01 | 0.01 | 0.01 | 92 | 1012.6 |
| 20260507120006 | 75 | 65 | 0.0 | 0.0 | 0.01 | 0.01 | 0.01 | 92 | 1012.1 |
| 20260507114615 | 76 | 33 | 0.0 | 0.0 | 0.00 | 0.00 | 0.00 | 94 | 1011.6 |
| 20260507113058 | 76 | 208 | 0.0 | 0.0 | 0.00 | 0.00 | 0.00 | 93 | 1011.5 |
| 20260507111557 | 76 | 205 | 0.0 | 0.9 | 0.00 | 0.00 | 0.00 | 93 | 1011.2 |
| 20260507104556 | 76 | 186 | 0.0 | 0.9 | 0.00 | 0.00 | 0.00 | 93 | 1010.9 |
| 20260507103053 | 76 | 57 | 0.0 | 1.7 | 0.00 | 0.00 | 0.00 | 93 | 1010.9 |
| 20260507101601 | 76 | 214 | 0.0 | 2.6 | 0.00 | 0.00 | 0.00 | 93 | 1010.6 |
| 20260507100053 | 76 | 210 | 0.0 | 1.7 | 0.00 | 0.00 | 0.00 | 93 | 1010.7 |
| 20260507094557 | 76 | 200 | 0.0 | 0.0 | 0.00 | 0.00 | 0.00 | 93 | 1010.6 |
| 20260507093051 | 76 | 204 | 0.0 | 0.9 | 0.00 | 0.00 | 0.00 | 93 | 1010.5 |
| 20260507091551 | 77 | 276 | 0.0 | 2.6 | 0.00 | 0.00 | 0.00 | 93 | 1010.5 |
| 20260507090054 | 77 | 162 | 0.0 | 0.9 | 0.00 | 0.00 | 0.00 | 92 | 1010.4 |
| 20260507084550 | 77 | 164 | 0.0 | 1.7 | 0.00 | 0.00 | 0.00 | 92 | 1010.5 |
| 20260507083049 | 77 | 218 | 0.0 | 1.7 | 0.00 | 0.00 | 0.00 | 93 | 1010.5 |
| 20260507081549 | 77 | 212 | 0.0 | 1.7 | 0.00 | 0.00 | 0.00 | 93 | 1010.3 |
| 20260507080049 | 77 | 205 | 0.0 | 3.5 | 0.00 | 0.00 | 0.00 | 93 | 1010.4 |
| 20260507074646 | 76 | 190 | 0.0 | 3.5 | 0.00 | 0.00 | 0.00 | 93 | 1010.5 |
| 20260507073054 | 77 | 204 | 0.0 | 1.7 | 0.00 | 0.00 | 0.00 | 93 | 1010.8 |
| 20260507071542 | 77 | 150 | 0.0 | 0.0 | 0.00 | 0.00 | 0.00 | 93 | 1011.0 |
| 20260507070043 | 77 | 141 | 0.0 | 1.7 | 0.00 | 0.00 | 0.00 | 93 | 1011.0 |
| 20260507064548 | 77 | 149 | 0.0 | 0.0 | 0.00 | 0.00 | 0.00 | 93 | 1011.1 |
| 20260507063047 | 77 | 20 | 0.0 | 0.0 | 0.00 | 0.00 | 0.00 | 93 | 1011.2 |
| 20260507061541 | 77 | 122 | 0.0 | 0.9 | 0.00 | 0.00 | 0.00 | 92 | 1011.3 |
| 20260507060037 | 77 | 211 | 0.0 | 2.6 | 0.00 | 0.00 | 0.00 | 92 | 1011.1 |
| 20260507054537 | 77 | 269 | 0.0 | 1.7 | 0.00 | 0.00 | 0.00 | 92 | 1011.2 |
| 20260507053036 | 77 | 181 | 0.0 | 3.5 | 0.00 | 0.00 | 0.00 | 92 | 1011.0 |
| 20260507051532 | 77 | 166 | 0.0 | 2.6 | 0.00 | 0.00 | 0.00 | 92 | 1011.2 |
| 20260507050032 | 77 | 248 | 0.0 | 3.5 | 0.00 | 0.00 | 0.00 | 92 | 1011.1 |
| 20260507044528 | 77 | 210 | 1.7 | 6.1 | 0.00 | 0.00 | 0.00 | 92 | 1010.9 |
| 20260507043031 | 77 | 165 | 0.0 | 7.0 | 0.00 | 0.00 | 0.00 | 92 | 1010.6 |
| 20260507041536 | 77 | 209 | 0.0 | 7.8 | 0.00 | 0.00 | 0.00 | 92 | 1010.5 |
| 20260507040027 | 77 | 205 | 0.0 | 7.0 | 0.00 | 0.00 | 0.00 | 92 | 1010.6 |
| 20260507034534 | 77 | 205 | 0.9 | 3.5 | 0.00 | 0.00 | 0.00 | 91 | 1010.6 |
| 20260507033026 | 77 | 130 | 0.9 | 6.1 | 0.00 | 0.00 | 0.00 | 91 | 1010.8 |
| 20260507031525 | 77 | 205 | 0.0 | 5.2 | 0.00 | 0.00 | 0.00 | 91 | 1010.8 |
| 20260507030024 | 78 | 173 | 1.7 | 5.2 | 0.00 | 0.00 | 0.00 | 91 | 1010.8 |
| 20260507024525 | 78 | 180 | 0.0 | 3.5 | 0.00 | 0.00 | 0.00 | 90 | 1010.9 |
| 20260507023024 | 78 | 199 | 0.0 | 3.5 | 0.00 | 0.00 | 0.00 | 89 | 1011.3 |
| 20260507021522 | 78 | 205 | 0.9 | 5.2 | 0.00 | 0.00 | 0.00 | 89 | 1011.2 |
| 20260507020025 | 78 | 206 | 0.0 | 3.5 | 0.00 | 0.00 | 0.00 | 89 | 1011.1 |
| 20260507014525 | 78 | 220 | 0.9 | 3.5 | 0.00 | 0.00 | 0.00 | 88 | 1010.9 |
| 20260507013021 | 78 | 213 | 0.0 | 0.9 | 0.00 | 0.00 | 0.00 | 87 | 1010.7 |
| 20260507011521 | 78 | 191 | 0.0 | 0.0 | 0.00 | 0.00 | 0.00 | 87 | 1010.6 |
| 20260507010031 | 79 | 200 | 0.0 | 3.5 | 0.00 | 0.00 | 0.00 | 86 | 1010.4 |
| 20260507004520 | 79 | 239 | 0.0 | 4.3 | 0.00 | 0.00 | 0.00 | 86 | 1010.1 |
| 20260507003019 | 79 | 205 | 0.0 | 3.5 | 0.00 | 0.00 | 0.00 | 85 | 1009.9 |
| 20260507001517 | 79 | 190 | 0.9 | 5.2 | 0.00 | 0.00 | 0.00 | 84 | 1009.8 |
| 20260507000018 | 79 | 27 | 1.7 | 6.1 | 0.00 | 0.00 | 0.00 | 84 | 1010.2 |
| 20260506234535 | 80 | 210 | 0.0 | 3.5 | 0.00 | 0.00 | 0.00 | 83 | 1010.0 |
| 20260506233015 | 80 | 203 | 0.0 | 5.2 | 0.00 | 0.00 | 0.00 | 82 | 1010.1 |
| 20260506231516 | 80 | 206 | 0.9 | 10.4 | 0.00 | 0.00 | 0.00 | 82 | 1009.9 |
| 20260506230016 | 81 | 207 | 0.9 | 7.0 | 0.00 | 0.00 | 0.00 | 80 | 1009.8 |